Location: Borgo
(42.3939°N, 9.2791°E)
Time: 21:54:13
(UTC+00:00)

Cosmos 2026 Rocket - Pass Details

Date: 24 January 2021
Orbit: 940 x 1000 km, 82.9° (Epoch: 02 March)

Event Time Altitude Azimuth Distance (km) Brightness Sun altitude
Rises 17:35:15 0° 169° (S) 3,601 7.0 -12.7°
Reaches altitude 10° 17:37:47 10° 164° (SSE) 2,667 6.3 -13.2°
Maximum altitude 17:43:37 50° 91° (E) 1,205 4.1 -14.2°
Drops below altitude 10° 17:49:35 10° 18° (NNE) 2,722 6.1 -15.3°
Sets 17:52:11 0° 13° (NNE) 3,683 6.8 -15.8°
